Weather History for Augusta, GA

Change the Weather History Date:

Friday, November 23, 2012

  Actual Average Record
Temperature  
Mean Temperature 55 °F -  
Max Temperature 71 °F 62 °F 77 °F (1999)
Min Temperature 39 °F 44 °F 32 °F (2002)
Degree Days  
Heating Degree Days 10    
Month to date heating degree days 224  
Growing Degree Days 5 (Base 50)    
Moisture  
Dew Point 40 °F    
Average Humidity 56    
Maximum Humidity 85    
Minimum Humidity 31    
Precipitation  
Precipitation 0.00 in - - ()
Month to date precipitation 0.75  
Year to date precipitation 40.10  
Sea Level Pressure  
Sea Level Pressure 30.08 in    
Wind  
Wind Speed 3 mph (West)    
Max Wind Speed 17 mph    
Max Gust Speed 41 mph    
Visibility 10 miles    
Events      
Averages and records for this station are not official NWS values.
T = Trace of Precipitation, MM = Missing Value Source: NWS Daily Summary

Daily Weather History Graph

Daily Weather History Graph

Search for Another Location

Airport:

Trip Planner

Search our weather history database for the weather conditions in past years. The results will help you decide how hot, cold, wet, or windy it might be!

Date:

Astronomy

Nov. 23, 2012 Rise Set
Actual Time 7:07 AM EST 5:21 PM EST
Civil Twilight 6:40 AM EST 5:48 PM EST
Nautical Twilight 6:10 AM EST 6:18 PM EST
Astronomical Twilight 5:40 AM EST 6:48 PM EST
Moon 2:25 PM EST (11/23) 2:36 AM EST (11/23)
Length of Visible Light 11h 07m
Length of Day
10h 14m
Waxing Gibbous, 79% of the Moon is Illuminated
Nov 23
Waxing Gibbous
Nov 28
Full
Dec 6
Last Quarter
Dec 13
New
Dec 20
First Quarter

Hourly Weather History & Observations

Time (EST) Temp. Dew Point Humidity Pressure Visibility Wind Dir Wind Speed Gust Speed Precip Events Conditions
12:53 AM 48.0 °F 37.9 °F 68% 30.18 in 10.0 mi Calm Calm - N/A   Clear
1:53 AM 46.0 °F 36.0 °F 68% 30.17 in 10.0 mi Calm Calm - N/A   Clear
2:53 AM 45.0 °F 36.0 °F 71% 30.17 in 10.0 mi Calm Calm - N/A   Clear
3:53 AM 45.0 °F 37.9 °F 76% 30.17 in 10.0 mi Calm Calm - N/A   Clear
4:53 AM 44.1 °F 37.9 °F 79% 30.17 in 10.0 mi Calm Calm - N/A   Clear
5:53 AM 43.0 °F 37.0 °F 80% 30.17 in 10.0 mi Calm Calm - N/A   Clear
6:53 AM 39.0 °F 36.0 °F 89% 30.19 in 10.0 mi Calm Calm - N/A   Clear
7:53 AM 43.0 °F 37.9 °F 82% 30.18 in 10.0 mi Calm Calm - N/A   Clear
8:53 AM 46.9 °F 39.0 °F 74% 30.17 in 10.0 mi South 3.5 mph - N/A   Clear
9:53 AM 54.0 °F 39.9 °F 59% 30.16 in 10.0 mi Calm Calm - N/A   Clear
10:53 AM 63.0 °F 43.0 °F 48% 30.14 in 10.0 mi Variable 4.6 mph - N/A   Clear
11:53 AM 66.0 °F 43.0 °F 43% 30.11 in 10.0 mi Variable 4.6 mph - N/A   Clear
12:53 PM 66.9 °F 39.9 °F 37% 30.07 in 10.0 mi West 8.1 mph - N/A   Clear
1:53 PM 70.0 °F 39.9 °F 33% 30.04 in 10.0 mi WNW 6.9 mph - N/A   Clear
2:53 PM 71.1 °F 39.0 °F 31% 30.01 in 10.0 mi Variable 3.5 mph - N/A   Clear
3:53 PM 70.0 °F 39.9 °F 33% 30.00 in 10.0 mi SW 10.4 mph - N/A   Clear
4:53 PM 68.0 °F 39.0 °F 35% 30.00 in 10.0 mi Variable 3.5 mph - N/A   Clear
5:53 PM 64.9 °F 39.9 °F 40% 30.00 in 10.0 mi Calm Calm - N/A   Clear
6:53 PM 63.0 °F 39.9 °F 43% 30.00 in 10.0 mi Calm Calm - N/A   Clear
7:53 PM 63.0 °F 41.0 °F 45% 29.99 in 10.0 mi Calm Calm - N/A   Overcast
8:53 PM 64.0 °F 41.0 °F 43% 29.99 in 10.0 mi Variable 4.6 mph - N/A   Overcast
9:53 PM 64.0 °F 43.0 °F 46% 29.98 in 10.0 mi WNW 6.9 mph - N/A   Scattered Clouds
10:53 PM 62.1 °F 46.9 °F 58% 29.98 in 10.0 mi WNW 11.5 mph - N/A   Clear
11:53 PM 59.0 °F 42.1 °F 53% 29.99 in 10.0 mi NW 9.2 mph - N/A   Clear